owner,sensor,date,latitude,longitude,vertical_datum,sea_water_practical_salinity,qcFlag 
NERRS,ioos:station:NOAA.NERRS:rkblhwq:1,2014-11-01T00:45:00Z,26.0257,-81.7332,1.54,30.5,1111122 
NERRS,ioos:station:NOAA.NERRS:rkblhwq:1,2014-11-01T01:45:00Z,26.0257,-81.7332,1.59,30.9,1111122 
NERRS,ioos:station:NOAA.NERRS:rkblhwq:1,2014-11-01T02:45:00Z,26.0257,-81.7332,1.55,30.6,1111122 
NERRS,ioos:station:NOAA.NERRS:rkblhwq:1,2014-11-01T03:45:00Z,26.0257,-81.7332,1.46,30.2,1111122 
NERRS,ioos:station:NOAA.NERRS:rkblhwq:1,2014-11-01T04:45:00Z,26.0257,-81.7332,1.36,30.1,1111122 
NERRS,ioos:station:NOAA.NERRS:rkblhwq:1,2014-11-01T06:45:00Z,26.0257,-81.7332,1.19,29.8,1111122 
NERRS,ioos:station:NOAA.NERRS:rkblhwq:1,2014-11-01T07:45:00Z,26.0257,-81.7332,1.19,29.1,1111122 
NERRS,ioos:station:NOAA.NERRS:rkblhwq:1,2014-11-01T08:45:00Z,26.0257,-81.7332,1.27,30.2,1111122 
NERRS,ioos:station:NOAA.NERRS:rkblhwq:1,2014-11-01T09:45:00Z,26.0257,-81.7332,1.39,30.0,1111122 
NERRS,ioos:station:NOAA.NERRS:rkblhwq:1,2014-11-01T10:45:00Z,26.0257,-81.7332,1.5,30.5,1111122 
NERRS,ioos:station:NOAA.NERRS:rkblhwq:1,2014-11-01T11:45:00Z,26.0257,-81.7332,1.6,30.6,1111122 
NERRS,ioos:station:NOAA.NERRS:rkblhwq:1,2014-11-01T12:45:00Z,26.0257,-81.7332,1.68,30.9,1111122 
NERRS,ioos:station:NOAA.NERRS:rkblhwq:1,2014-11-01T13:45:00Z,26.0257,-81.7332,1.7,31.4,1111122 
NERRS,ioos:station:NOAA.NERRS:rkblhwq:1,2014-11-01T14:45:00Z,26.0257,-81.7332,1.65,30.5,1111122 
NERRS,ioos:station:NOAA.NERRS:rkblhwq:1,2014-11-01T15:45:00Z,26.0257,-81.7332,1.51,30.2,1111122 
NERRS,ioos:station:NOAA.NERRS:rkblhwq:1,2014-11-01T16:45:00Z,26.0257,-81.7332,1.34,29.9,1111122 
NERRS,ioos:station:NOAA.NERRS:rkblhwq:1,2014-11-01T17:45:00Z,26.0257,-81.7332,1.22,29.6,1111122 
NERRS,ioos:station:NOAA.NERRS:rkblhwq:1,2014-11-01T18:45:00Z,26.0257,-81.7332,1.13,29.6,1111122 
NERRS,ioos:station:NOAA.NERRS:rkblhwq:1,2014-11-01T19:45:00Z,26.0257,-81.7332,1.06,29.6,1111122 
NERRS,ioos:station:NOAA.NERRS:rkblhwq:1,2014-11-01T20:45:00Z,26.0257,-81.7332,1.01,29.7,1111122 
NERRS,ioos:station:NOAA.NERRS:rkblhwq:1,2014-11-01T21:45:00Z,26.0257,-81.7332,1.05,29.5,1111122 
NERRS,ioos:station:NOAA.NERRS:rkblhwq:1,2014-11-01T22:45:00Z,26.0257,-81.7332,1.16,29.9,1111122 
NERRS,ioos:station:NOAA.NERRS:rkblhwq:1,2014-11-01T23:45:00Z,26.0257,-81.7332,1.29,30.3,1111122 
NERRS,ioos:station:NOAA.NERRS:rkblhwq:1,2014-11-02T00:45:00Z,26.0257,-81.7332,1.42,30.2,1111122 
NERRS,ioos:station:NOAA.NERRS:rkblhwq:1,2014-11-02T01:45:00Z,26.0257,-81.7332,1.49,30.6,1111122 
NERRS,ioos:station:NOAA.NERRS:rkblhwq:1,2014-11-02T02:45:00Z,26.0257,-81.7332,1.49,30.2,1111122 
NERRS,ioos:station:NOAA.NERRS:rkblhwq:1,2014-11-02T03:45:00Z,26.0257,-81.7332,1.41,30.2,1111122 
NERRS,ioos:station:NOAA.NERRS:rkblhwq:1,2014-11-02T04:45:00Z,26.0257,-81.7332,1.31,29.8,1111122 
NERRS,ioos:station:NOAA.NERRS:rkblhwq:1,2014-11-02T06:45:00Z,26.0257,-81.7332,1.11,29.6,1111122 
NERRS,ioos:station:NOAA.NERRS:rkblhwq:1,2014-11-02T07:45:00Z,26.0257,-81.7332,1.01,29.5,1111122 
NERRS,ioos:station:NOAA.NERRS:rkblhwq:1,2014-11-02T08:45:00Z,26.0257,-81.7332,0.94,29.4,1111122 
NERRS,ioos:station:NOAA.NERRS:rkblhwq:1,2014-11-02T09:45:00Z,26.0257,-81.7332,0.94,28.0,1111122 
NERRS,ioos:station:NOAA.NERRS:rkblhwq:1,2014-11-02T10:45:00Z,26.0257,-81.7332,1.02,29.2,1111122 
NERRS,ioos:station:NOAA.NERRS:rkblhwq:1,2014-11-02T11:45:00Z,26.0257,-81.7332,1.13,29.1,1111122 
NERRS,ioos:station:NOAA.NERRS:rkblhwq:1,2014-11-02T12:45:00Z,26.0257,-81.7332,1.26,29.8,1111122 
NERRS,ioos:station:NOAA.NERRS:rkblhwq:1,2014-11-02T13:45:00Z,26.0257,-81.7332,1.37,30.2,1111122 
NERRS,ioos:station:NOAA.NERRS:rkblhwq:1,2014-11-02T14:45:00Z,26.0257,-81.7332,1.44,30.7,1111122 
NERRS,ioos:station:NOAA.NERRS:rkblhwq:1,2014-11-02T15:45:00Z,26.0257,-81.7332,1.42,30.7,1111122 
NERRS,ioos:station:NOAA.NERRS:rkblhwq:1,2014-11-02T16:45:00Z,26.0257,-81.7332,1.32,29.4,1111122 
NERRS,ioos:station:NOAA.NERRS:rkblhwq:1,2014-11-02T17:45:00Z,26.0257,-81.7332,1.22,29.3,1111122 
NERRS,ioos:station:NOAA.NERRS:rkblhwq:1,2014-11-02T18:45:00Z,26.0257,-81.7332,1.12,29.3,1111122 
NERRS,ioos:station:NOAA.NERRS:rkblhwq:1,2014-11-02T19:45:00Z,26.0257,-81.7332,1.03,29.4,1111122 
NERRS,ioos:station:NOAA.NERRS:rkblhwq:1,2014-11-02T20:45:00Z,26.0257,-81.7332,0.97,29.3,1111122 
NERRS,ioos:station:NOAA.NERRS:rkblhwq:1,2014-11-02T21:45:00Z,26.0257,-81.7332,1.0,29.2,1111122 
NERRS,ioos:station:NOAA.NERRS:rkblhwq:1,2014-11-02T22:45:00Z,26.0257,-81.7332,1.1,29.5,1111122 
NERRS,ioos:station:NOAA.NERRS:rkblhwq:1,2014-11-02T23:45:00Z,26.0257,-81.7332,1.21,29.5,1111122 
NERRS,ioos:station:NOAA.NERRS:rkblhwq:1,2014-11-03T00:45:00Z,26.0257,-81.7332,1.33,30.1,1111122 
NERRS,ioos:station:NOAA.NERRS:rkblhwq:1,2014-11-03T01:45:00Z,26.0257,-81.7332,1.45,30.3,1111122 
NERRS,ioos:station:NOAA.NERRS:rkblhwq:1,2014-11-03T02:45:00Z,26.0257,-81.7332,1.55,30.7,1111122 
NERRS,ioos:station:NOAA.NERRS:rkblhwq:1,2014-11-03T03:45:00Z,26.0257,-81.7332,1.58,30.9,1111122 
NERRS,ioos:station:NOAA.NERRS:rkblhwq:1,2014-11-03T04:45:00Z,26.0257,-81.7332,1.5,30.0,1111122 
NERRS,ioos:station:NOAA.NERRS:rkblhwq:1,2014-11-03T05:45:00Z,26.0257,-81.7332,1.37,29.7,1111122 
NERRS,ioos:station:NOAA.NERRS:rkblhwq:1,2014-11-03T06:45:00Z,26.0257,-81.7332,1.24,29.5,1111122 
NERRS,ioos:station:NOAA.NERRS:rkblhwq:1,2014-11-03T07:45:00Z,26.0257,-81.7332,1.1,29.4,1111122 
NERRS,ioos:station:NOAA.NERRS:rkblhwq:1,2014-11-03T08:45:00Z,26.0257,-81.7332,0.99,29.4,1111122 
NERRS,ioos:station:NOAA.NERRS:rkblhwq:1,2014-11-03T09:45:00Z,26.0257,-81.7332,0.91,29.4,1111122 
NERRS,ioos:station:NOAA.NERRS:rkblhwq:1,2014-11-03T11:45:00Z,26.0257,-81.7332,1.05,29.4,1111122 
NERRS,ioos:station:NOAA.NERRS:rkblhwq:1,2014-11-03T12:45:00Z,26.0257,-81.7332,1.18,29.6,1111122 
NERRS,ioos:station:NOAA.NERRS:rkblhwq:1,2014-11-03T13:45:00Z,26.0257,-81.7332,1.33,30.4,1111122 
NERRS,ioos:station:NOAA.NERRS:rkblhwq:1,2014-11-03T14:45:00Z,26.0257,-81.7332,1.46,30.4,1111122 
NERRS,ioos:station:NOAA.NERRS:rkblhwq:1,2014-11-03T16:45:00Z,26.0257,-81.7332,1.46,30.3,1111122 
NERRS,ioos:station:NOAA.NERRS:rkblhwq:1,2014-11-03T17:45:00Z,26.0257,-81.7332,1.36,30.1,1111122 
NERRS,ioos:station:NOAA.NERRS:rkblhwq:1,2014-11-03T18:45:00Z,26.0257,-81.7332,1.25,29.9,1111122 
NERRS,ioos:station:NOAA.NERRS:rkblhwq:1,2014-11-03T19:45:00Z,26.0257,-81.7332,1.15,29.7,1111122 
NERRS,ioos:station:NOAA.NERRS:rkblhwq:1,2014-11-03T20:45:00Z,26.0257,-81.7332,1.05,29.7,1111122 
NERRS,ioos:station:NOAA.NERRS:rkblhwq:1,2014-11-03T22:45:00Z,26.0257,-81.7332,1.02,29.5,1111122 
NERRS,ioos:station:NOAA.NERRS:rkblhwq:1,2014-11-03T23:45:00Z,26.0257,-81.7332,1.13,29.7,1111122 
NERRS,ioos:station:NOAA.NERRS:rkblhwq:1,2014-11-04T00:45:00Z,26.0257,-81.7332,1.26,30.1,1111122 
NERRS,ioos:station:NOAA.NERRS:rkblhwq:1,2014-11-04T01:45:00Z,26.0257,-81.7332,1.41,30.6,1111122 
NERRS,ioos:station:NOAA.NERRS:rkblhwq:1,2014-11-04T02:45:00Z,26.0257,-81.7332,1.54,30.8,1111122 
NERRS,ioos:station:NOAA.NERRS:rkblhwq:1,2014-11-04T03:45:00Z,26.0257,-81.7332,1.63,30.9,1111122 
NERRS,ioos:station:NOAA.NERRS:rkblhwq:1,2014-11-04T04:45:00Z,26.0257,-81.7332,1.59,30.7,1111122 
NERRS,ioos:station:NOAA.NERRS:rkblhwq:1,2014-11-04T05:45:00Z,26.0257,-81.7332,1.46,30.3,1111122 
NERRS,ioos:station:NOAA.NERRS:rkblhwq:1,2014-11-04T06:45:00Z,26.0257,-81.7332,1.32,30.0,1111122 
NERRS,ioos:station:NOAA.NERRS:rkblhwq:1,2014-11-04T07:45:00Z,26.0257,-81.7332,1.18,29.8,1111122 
NERRS,ioos:station:NOAA.NERRS:rkblhwq:1,2014-11-04T08:45:00Z,26.0257,-81.7332,1.05,29.9,1111122 
NERRS,ioos:station:NOAA.NERRS:rkblhwq:1,2014-11-04T09:45:00Z,26.0257,-81.7332,0.93,29.7,1111122 
NERRS,ioos:station:NOAA.NERRS:rkblhwq:1,2014-11-04T10:45:00Z,26.0257,-81.7332,0.89,29.8,1111122 
NERRS,ioos:station:NOAA.NERRS:rkblhwq:1,2014-11-04T11:45:00Z,26.0257,-81.7332,0.97,29.5,1111122 
NERRS,ioos:station:NOAA.NERRS:rkblhwq:1,2014-11-04T12:45:00Z,26.0257,-81.7332,1.1,29.9,1111122 
NERRS,ioos:station:NOAA.NERRS:rkblhwq:1,2014-11-04T13:45:00Z,26.0257,-81.7332,1.25,30.5,1111122 
NERRS,ioos:station:NOAA.NERRS:rkblhwq:1,2014-11-04T14:45:00Z,26.0257,-81.7332,1.42,30.7,1111122 
NERRS,ioos:station:NOAA.NERRS:rkblhwq:1,2014-11-04T16:45:00Z,26.0257,-81.7332,1.63,31.0,1111122 
NERRS,ioos:station:NOAA.NERRS:rkblhwq:1,2014-11-04T17:45:00Z,26.0257,-81.7332,1.57,30.8,1111122 
NERRS,ioos:station:NOAA.NERRS:rkblhwq:1,2014-11-04T18:45:00Z,26.0257,-81.7332,1.45,30.6,1111122 
NERRS,ioos:station:NOAA.NERRS:rkblhwq:1,2014-11-04T19:45:00Z,26.0257,-81.7332,1.32,30.3,1111122 
NERRS,ioos:station:NOAA.NERRS:rkblhwq:1,2014-11-04T20:45:00Z,26.0257,-81.7332,1.2,30.2,1111122 
NERRS,ioos:station:NOAA.NERRS:rkblhwq:1,2014-11-04T22:45:00Z,26.0257,-81.7332,1.06,29.9,1111122 
NERRS,ioos:station:NOAA.NERRS:rkblhwq:1,2014-11-04T23:45:00Z,26.0257,-81.7332,1.15,30.1,1111122 
NERRS,ioos:station:NOAA.NERRS:rkblhwq:1,2014-11-05T00:45:00Z,26.0257,-81.7332,1.27,30.5,1111122 
NERRS,ioos:station:NOAA.NERRS:rkblhwq:1,2014-11-05T01:45:00Z,26.0257,-81.7332,1.41,31.0,1111122 
NERRS,ioos:station:NOAA.NERRS:rkblhwq:1,2014-11-05T02:45:00Z,26.0257,-81.7332,1.56,31.1,1111122 
NERRS,ioos:station:NOAA.NERRS:rkblhwq:1,2014-11-05T03:45:00Z,26.0257,-81.7332,1.69,31.2,1111122 
NERRS,ioos:station:NOAA.NERRS:rkblhwq:1,2014-11-05T04:45:00Z,26.0257,-81.7332,1.75,31.6,1111122 
NERRS,ioos:station:NOAA.NERRS:rkblhwq:1,2014-11-05T05:45:00Z,26.0257,-81.7332,1.69,31.4,1111122 
NERRS,ioos:station:NOAA.NERRS:rkblhwq:1,2014-11-05T06:45:00Z,26.0257,-81.7332,1.56,30.7,1111122 
NERRS,ioos:station:NOAA.NERRS:rkblhwq:1,2014-11-05T07:45:00Z,26.0257,-81.7332,1.39,30.4,1111122 
NERRS,ioos:station:NOAA.NERRS:rkblhwq:1,2014-11-05T08:45:00Z,26.0257,-81.7332,1.23,30.2,1111122 
NERRS,ioos:station:NOAA.NERRS:rkblhwq:1,2014-11-05T09:45:00Z,26.0257,-81.7332,1.08,30.2,1111122 
NERRS,ioos:station:NOAA.NERRS:rkblhwq:1,2014-11-05T10:45:00Z,26.0257,-81.7332,0.95,30.2,1111122 
NERRS,ioos:station:NOAA.NERRS:rkblhwq:1,2014-11-05T11:45:00Z,26.0257,-81.7332,0.89,30.1,1111122 
NERRS,ioos:station:NOAA.NERRS:rkblhwq:1,2014-11-05T12:45:00Z,26.0257,-81.7332,0.98,30.0,1111122 
NERRS,ioos:station:NOAA.NERRS:rkblhwq:1,2014-11-05T13:45:00Z,26.0257,-81.7332,1.13,30.3,1111122 
NERRS,ioos:station:NOAA.NERRS:rkblhwq:1,2014-11-05T14:45:00Z,26.0257,-81.7332,1.29,30.8,1111122 
NERRS,ioos:station:NOAA.NERRS:rkblhwq:1,2014-11-05T15:45:00Z,26.0257,-81.7332,1.46,31.0,1111122 
NERRS,ioos:station:NOAA.NERRS:rkblhwq:1,2014-11-05T16:45:00Z,26.0257,-81.7332,1.6,31.1,1111122 
NERRS,ioos:station:NOAA.NERRS:rkblhwq:1,2014-11-05T17:45:00Z,26.0257,-81.7332,1.68,31.4,1111122 
NERRS,ioos:station:NOAA.NERRS:rkblhwq:1,2014-11-05T18:45:00Z,26.0257,-81.7332,1.64,32.2,1111122 
NERRS,ioos:station:NOAA.NERRS:rkblhwq:1,2014-11-05T19:45:00Z,26.0257,-81.7332,1.52,31.8,1111122 
NERRS,ioos:station:NOAA.NERRS:rkblhwq:1,2014-11-05T20:45:00Z,26.0257,-81.7332,1.39,31.5,1111122 
NERRS,ioos:station:NOAA.NERRS:rkblhwq:1,2014-11-05T21:45:00Z,26.0257,-81.7332,1.26,31.4,1111122 
NERRS,ioos:station:NOAA.NERRS:rkblhwq:1,2014-11-05T22:45:00Z,26.0257,-81.7332,1.17,31.4,1111122 
NERRS,ioos:station:NOAA.NERRS:rkblhwq:1,2014-11-05T23:45:00Z,26.0257,-81.7332,1.17,31.3,1111122 
NERRS,ioos:station:NOAA.NERRS:rkblhwq:1,2014-11-06T00:45:00Z,26.0257,-81.7332,1.28,31.6,1111122 
NERRS,ioos:station:NOAA.NERRS:rkblhwq:1,2014-11-06T01:45:00Z,26.0257,-81.7332,1.42,31.5,1111122 
NERRS,ioos:station:NOAA.NERRS:rkblhwq:1,2014-11-06T02:45:00Z,26.0257,-81.7332,1.56,32.3,1111122 
NERRS,ioos:station:NOAA.NERRS:rkblhwq:1,2014-11-06T03:45:00Z,26.0257,-81.7332,1.69,32.4,1111122 
NERRS,ioos:station:NOAA.NERRS:rkblhwq:1,2014-11-06T04:45:00Z,26.0257,-81.7332,1.78,32.4,1111122 
NERRS,ioos:station:NOAA.NERRS:rkblhwq:1,2014-11-06T05:45:00Z,26.0257,-81.7332,1.79,32.7,1111122 
NERRS,ioos:station:NOAA.NERRS:rkblhwq:1,2014-11-06T06:45:00Z,26.0257,-81.7332,1.69,32.2,1111122 
NERRS,ioos:station:NOAA.NERRS:rkblhwq:1,2014-11-06T08:45:00Z,26.0257,-81.7332,1.37,31.5,1111122 
NERRS,ioos:station:NOAA.NERRS:rkblhwq:1,2014-11-06T09:45:00Z,26.0257,-81.7332,1.2,31.6,1111122 
NERRS,ioos:station:NOAA.NERRS:rkblhwq:1,2014-11-06T10:45:00Z,26.0257,-81.7332,1.04,31.5,1111122 
NERRS,ioos:station:NOAA.NERRS:rkblhwq:1,2014-11-06T11:45:00Z,26.0257,-81.7332,0.91,31.4,1111122 
NERRS,ioos:station:NOAA.NERRS:rkblhwq:1,2014-11-06T12:45:00Z,26.0257,-81.7332,0.89,31.1,1111122 
NERRS,ioos:station:NOAA.NERRS:rkblhwq:1,2014-11-06T13:45:00Z,26.0257,-81.7332,0.99,31.2,1111122 
NERRS,ioos:station:NOAA.NERRS:rkblhwq:1,2014-11-06T14:45:00Z,26.0257,-81.7332,1.16,31.9,1111122 
NERRS,ioos:station:NOAA.NERRS:rkblhwq:1,2014-11-06T15:45:00Z,26.0257,-81.7332,1.35,32.2,1111122 
NERRS,ioos:station:NOAA.NERRS:rkblhwq:1,2014-11-06T16:45:00Z,26.0257,-81.7332,1.53,32.4,1111122 
NERRS,ioos:station:NOAA.NERRS:rkblhwq:1,2014-11-06T17:45:00Z,26.0257,-81.7332,1.67,32.4,1111122 
NERRS,ioos:station:NOAA.NERRS:rkblhwq:1,2014-11-06T18:45:00Z,26.0257,-81.7332,1.74,32.5,1111122 
NERRS,ioos:station:NOAA.NERRS:rkblhwq:1,2014-11-06T19:45:00Z,26.0257,-81.7332,1.67,32.4,1111122 
NERRS,ioos:station:NOAA.NERRS:rkblhwq:1,2014-11-06T20:45:00Z,26.0257,-81.7332,1.56,32.5,1111122 
NERRS,ioos:station:NOAA.NERRS:rkblhwq:1,2014-11-06T22:45:00Z,26.0257,-81.7332,1.31,32.1,1111122 
NERRS,ioos:station:NOAA.NERRS:rkblhwq:1,2014-11-06T23:45:00Z,26.0257,-81.7332,1.22,31.8,1111122 
NERRS,ioos:station:NOAA.NERRS:rkblhwq:1,2014-11-07T00:45:00Z,26.0257,-81.7332,1.23,31.8,1111122 
NERRS,ioos:station:NOAA.NERRS:rkblhwq:1,2014-11-07T01:45:00Z,26.0257,-81.7332,1.37,32.0,1111122 
NERRS,ioos:station:NOAA.NERRS:rkblhwq:1,2014-11-07T02:45:00Z,26.0257,-81.7332,1.51,32.2,1111122 
NERRS,ioos:station:NOAA.NERRS:rkblhwq:1,2014-11-07T03:45:00Z,26.0257,-81.7332,1.66,32.5,1111122 
NERRS,ioos:station:NOAA.NERRS:rkblhwq:1,2014-11-07T04:45:00Z,26.0257,-81.7332,1.77,32.5,1111122 
NERRS,ioos:station:NOAA.NERRS:rkblhwq:1,2014-11-07T05:45:00Z,26.0257,-81.7332,1.83,32.7,1111122 
NERRS,ioos:station:NOAA.NERRS:rkblhwq:1,2014-11-07T06:45:00Z,26.0257,-81.7332,1.81,32.7,1111122 
NERRS,ioos:station:NOAA.NERRS:rkblhwq:1,2014-11-07T07:45:00Z,26.0257,-81.7332,1.7,32.5,1111122 
NERRS,ioos:station:NOAA.NERRS:rkblhwq:1,2014-11-07T08:45:00Z,26.0257,-81.7332,1.56,32.1,1111122 
NERRS,ioos:station:NOAA.NERRS:rkblhwq:1,2014-11-07T09:45:00Z,26.0257,-81.7332,1.38,31.8,1111122 
NERRS,ioos:station:NOAA.NERRS:rkblhwq:1,2014-11-07T10:45:00Z,26.0257,-81.7332,1.2,31.5,1111122 
NERRS,ioos:station:NOAA.NERRS:rkblhwq:1,2014-11-07T11:45:00Z,26.0257,-81.7332,1.04,31.6,1111122 
NERRS,ioos:station:NOAA.NERRS:rkblhwq:1,2014-11-07T12:45:00Z,26.0257,-81.7332,0.91,31.6,1111122 
NERRS,ioos:station:NOAA.NERRS:rkblhwq:1,2014-11-07T13:45:00Z,26.0257,-81.7332,0.88,31.6,1111122 
NERRS,ioos:station:NOAA.NERRS:rkblhwq:1,2014-11-07T14:45:00Z,26.0257,-81.7332,1.0,31.6,1111122 
NERRS,ioos:station:NOAA.NERRS:rkblhwq:1,2014-11-07T15:45:00Z,26.0257,-81.7332,1.17,32.1,1111122 
NERRS,ioos:station:NOAA.NERRS:rkblhwq:1,2014-11-07T16:45:00Z,26.0257,-81.7332,1.36,32.5,1111122 
NERRS,ioos:station:NOAA.NERRS:rkblhwq:1,2014-11-07T17:45:00Z,26.0257,-81.7332,1.52,32.4,1111122 
NERRS,ioos:station:NOAA.NERRS:rkblhwq:1,2014-11-07T18:45:00Z,26.0257,-81.7332,1.66,32.6,1111122 
NERRS,ioos:station:NOAA.NERRS:rkblhwq:1,2014-11-07T19:45:00Z,26.0257,-81.7332,1.71,32.7,1111122 
NERRS,ioos:station:NOAA.NERRS:rkblhwq:1,2014-11-07T20:45:00Z,26.0257,-81.7332,1.64,32.6,1111122 
NERRS,ioos:station:NOAA.NERRS:rkblhwq:1,2014-11-07T21:45:00Z,26.0257,-81.7332,1.53,32.6,1111122 
NERRS,ioos:station:NOAA.NERRS:rkblhwq:1,2014-11-07T22:45:00Z,26.0257,-81.7332,1.41,32.5,1111122 
NERRS,ioos:station:NOAA.NERRS:rkblhwq:1,2014-11-07T23:45:00Z,26.0257,-81.7332,1.3,32.3,1111122 
NERRS,ioos:station:NOAA.NERRS:rkblhwq:1,2014-11-08T00:45:00Z,26.0257,-81.7332,1.25,32.1,1111122 
NERRS,ioos:station:NOAA.NERRS:rkblhwq:1,2014-11-08T01:45:00Z,26.0257,-81.7332,1.33,32.4,1111122 
NERRS,ioos:station:NOAA.NERRS:rkblhwq:1,2014-11-08T02:45:00Z,26.0257,-81.7332,1.47,32.4,1111122 
NERRS,ioos:station:NOAA.NERRS:rkblhwq:1,2014-11-08T03:45:00Z,26.0257,-81.7332,1.61,32.6,1111122 
NERRS,ioos:station:NOAA.NERRS:rkblhwq:1,2014-11-08T04:45:00Z,26.0257,-81.7332,1.72,32.7,1111122 
NERRS,ioos:station:NOAA.NERRS:rkblhwq:1,2014-11-08T05:45:00Z,26.0257,-81.7332,1.79,32.8,1111122 
NERRS,ioos:station:NOAA.NERRS:rkblhwq:1,2014-11-08T06:45:00Z,26.0257,-81.7332,1.83,32.9,1111122 
NERRS,ioos:station:NOAA.NERRS:rkblhwq:1,2014-11-08T07:45:00Z,26.0257,-81.7332,1.77,32.8,1111122 
NERRS,ioos:station:NOAA.NERRS:rkblhwq:1,2014-11-08T08:45:00Z,26.0257,-81.7332,1.66,32.6,1111122 
NERRS,ioos:station:NOAA.NERRS:rkblhwq:1,2014-11-08T09:45:00Z,26.0257,-81.7332,1.5,32.3,1111122 
NERRS,ioos:station:NOAA.NERRS:rkblhwq:1,2014-11-08T10:45:00Z,26.0257,-81.7332,1.32,32.2,1111122 
NERRS,ioos:station:NOAA.NERRS:rkblhwq:1,2014-11-08T11:45:00Z,26.0257,-81.7332,1.14,32.0,1111122 
NERRS,ioos:station:NOAA.NERRS:rkblhwq:1,2014-11-08T12:45:00Z,26.0257,-81.7332,0.99,32.1,1111122 
NERRS,ioos:station:NOAA.NERRS:rkblhwq:1,2014-11-08T13:45:00Z,26.0257,-81.7332,0.87,32.0,1111122 
NERRS,ioos:station:NOAA.NERRS:rkblhwq:1,2014-11-08T14:45:00Z,26.0257,-81.7332,0.89,31.6,1111122 
NERRS,ioos:station:NOAA.NERRS:rkblhwq:1,2014-11-08T15:45:00Z,26.0257,-81.7332,1.03,32.1,1111122 
NERRS,ioos:station:NOAA.NERRS:rkblhwq:1,2014-11-08T16:45:00Z,26.0257,-81.7332,1.19,32.4,1111122 
NERRS,ioos:station:NOAA.NERRS:rkblhwq:1,2014-11-08T17:45:00Z,26.0257,-81.7332,1.37,32.6,1111122 
NERRS,ioos:station:NOAA.NERRS:rkblhwq:1,2014-11-08T18:45:00Z,26.0257,-81.7332,1.53,32.7,1111122 
NERRS,ioos:station:NOAA.NERRS:rkblhwq:1,2014-11-08T19:45:00Z,26.0257,-81.7332,1.64,32.8,1111122 
NERRS,ioos:station:NOAA.NERRS:rkblhwq:1,2014-11-08T20:45:00Z,26.0257,-81.7332,1.65,32.8,1111122 
NERRS,ioos:station:NOAA.NERRS:rkblhwq:1,2014-11-08T21:45:00Z,26.0257,-81.7332,1.57,32.8,1111122 
NERRS,ioos:station:NOAA.NERRS:rkblhwq:1,2014-11-08T22:45:00Z,26.0257,-81.7332,1.47,32.7,1111122 
NERRS,ioos:station:NOAA.NERRS:rkblhwq:1,2014-11-08T23:45:00Z,26.0257,-81.7332,1.36,32.5,1111122 
NERRS,ioos:station:NOAA.NERRS:rkblhwq:1,2014-11-09T00:45:00Z,26.0257,-81.7332,1.26,32.3,1111122 
NERRS,ioos:station:NOAA.NERRS:rkblhwq:1,2014-11-09T01:45:00Z,26.0257,-81.7332,1.24,32.5,1111122 
NERRS,ioos:station:NOAA.NERRS:rkblhwq:1,2014-11-09T02:45:00Z,26.0257,-81.7332,1.34,32.6,1111122 
NERRS,ioos:station:NOAA.NERRS:rkblhwq:1,2014-11-09T03:45:00Z,26.0257,-81.7332,1.48,32.8,1111122 
NERRS,ioos:station:NOAA.NERRS:rkblhwq:1,2014-11-09T04:45:00Z,26.0257,-81.7332,1.62,32.7,1111122 
NERRS,ioos:station:NOAA.NERRS:rkblhwq:1,2014-11-09T05:45:00Z,26.0257,-81.7332,1.71,32.8,1111122 
NERRS,ioos:station:NOAA.NERRS:rkblhwq:1,2014-11-09T06:45:00Z,26.0257,-81.7332,1.74,33.0,1111122 
NERRS,ioos:station:NOAA.NERRS:rkblhwq:1,2014-11-09T07:45:00Z,26.0257,-81.7332,1.76,33.0,1111122 
NERRS,ioos:station:NOAA.NERRS:rkblhwq:1,2014-11-09T08:45:00Z,26.0257,-81.7332,1.69,32.8,1111122 
NERRS,ioos:station:NOAA.NERRS:rkblhwq:1,2014-11-09T09:45:00Z,26.0257,-81.7332,1.58,32.3,1111122 
NERRS,ioos:station:NOAA.NERRS:rkblhwq:1,2014-11-09T10:45:00Z,26.0257,-81.7332,1.42,31.9,1111122 
NERRS,ioos:station:NOAA.NERRS:rkblhwq:1,2014-11-09T11:45:00Z,26.0257,-81.7332,1.26,31.9,1111122 
NERRS,ioos:station:NOAA.NERRS:rkblhwq:1,2014-11-09T12:45:00Z,26.0257,-81.7332,1.1,31.9,1111122 
NERRS,ioos:station:NOAA.NERRS:rkblhwq:1,2014-11-09T13:45:00Z,26.0257,-81.7332,0.97,32.1,1111122 
NERRS,ioos:station:NOAA.NERRS:rkblhwq:1,2014-11-09T14:45:00Z,26.0257,-81.7332,0.89,31.9,1111122 
NERRS,ioos:station:NOAA.NERRS:rkblhwq:1,2014-11-09T15:45:00Z,26.0257,-81.7332,0.95,31.7,1111122 
NERRS,ioos:station:NOAA.NERRS:rkblhwq:1,2014-11-09T16:45:00Z,26.0257,-81.7332,1.07,31.9,1111122 
NERRS,ioos:station:NOAA.NERRS:rkblhwq:1,2014-11-09T17:45:00Z,26.0257,-81.7332,1.21,32.3,1111122 
NERRS,ioos:station:NOAA.NERRS:rkblhwq:1,2014-11-09T18:45:00Z,26.0257,-81.7332,1.37,32.4,1111122 
NERRS,ioos:station:NOAA.NERRS:rkblhwq:1,2014-11-09T19:45:00Z,26.0257,-81.7332,1.49,32.2,1111122 
NERRS,ioos:station:NOAA.NERRS:rkblhwq:1,2014-11-09T20:45:00Z,26.0257,-81.7332,1.52,32.3,1111122 
NERRS,ioos:station:NOAA.NERRS:rkblhwq:1,2014-11-09T21:45:00Z,26.0257,-81.7332,1.47,32.0,1111122 
NERRS,ioos:station:NOAA.NERRS:rkblhwq:1,2014-11-09T22:45:00Z,26.0257,-81.7332,1.36,31.7,1111122 
NERRS,ioos:station:NOAA.NERRS:rkblhwq:1,2014-11-09T23:45:00Z,26.0257,-81.7332,1.3,31.7,1111122 
NERRS,ioos:station:NOAA.NERRS:rkblhwq:1,2014-11-10T00:45:00Z,26.0257,-81.7332,1.22,31.7,1111122 
NERRS,ioos:station:NOAA.NERRS:rkblhwq:1,2014-11-10T01:45:00Z,26.0257,-81.7332,1.16,31.5,1111122 
NERRS,ioos:station:NOAA.NERRS:rkblhwq:1,2014-11-10T02:45:00Z,26.0257,-81.7332,1.16,31.1,1111122 
NERRS,ioos:station:NOAA.NERRS:rkblhwq:1,2014-11-10T03:45:00Z,26.0257,-81.7332,1.25,31.4,1111122 
NERRS,ioos:station:NOAA.NERRS:rkblhwq:1,2014-11-10T04:45:00Z,26.0257,-81.7332,1.38,31.6,1111122 
NERRS,ioos:station:NOAA.NERRS:rkblhwq:1,2014-11-10T05:45:00Z,26.0257,-81.7332,1.52,31.7,1111122 
NERRS,ioos:station:NOAA.NERRS:rkblhwq:1,2014-11-10T06:45:00Z,26.0257,-81.7332,1.64,32.0,1111122 
NERRS,ioos:station:NOAA.NERRS:rkblhwq:1,2014-11-10T07:45:00Z,26.0257,-81.7332,1.71,32.2,1111122 
NERRS,ioos:station:NOAA.NERRS:rkblhwq:1,2014-11-10T08:45:00Z,26.0257,-81.7332,1.67,32.1,1111122 
NERRS,ioos:station:NOAA.NERRS:rkblhwq:1,2014-11-10T09:45:00Z,26.0257,-81.7332,1.56,32.1,1111122 
NERRS,ioos:station:NOAA.NERRS:rkblhwq:1,2014-11-10T10:45:00Z,26.0257,-81.7332,1.42,31.8,1111122 
NERRS,ioos:station:NOAA.NERRS:rkblhwq:1,2014-11-10T11:45:00Z,26.0257,-81.7332,1.26,31.3,1111122 
NERRS,ioos:station:NOAA.NERRS:rkblhwq:1,2014-11-10T12:45:00Z,26.0257,-81.7332,1.1,30.9,1111122 
NERRS,ioos:station:NOAA.NERRS:rkblhwq:1,2014-11-10T13:45:00Z,26.0257,-81.7332,0.97,30.7,1111122 
NERRS,ioos:station:NOAA.NERRS:rkblhwq:1,2014-11-10T14:45:00Z,26.0257,-81.7332,0.86,30.7,1111122 
NERRS,ioos:station:NOAA.NERRS:rkblhwq:1,2014-11-10T15:45:00Z,26.0257,-81.7332,0.86,30.5,1111122 
NERRS,ioos:station:NOAA.NERRS:rkblhwq:1,2014-11-10T16:45:00Z,26.0257,-81.7332,0.98,30.8,1111122 
NERRS,ioos:station:NOAA.NERRS:rkblhwq:1,2014-11-10T17:45:00Z,26.0257,-81.7332,1.13,31.0,1111122 
NERRS,ioos:station:NOAA.NERRS:rkblhwq:1,2014-11-10T18:45:00Z,26.0257,-81.7332,1.29,31.8,1111122 
NERRS,ioos:station:NOAA.NERRS:rkblhwq:1,2014-11-10T19:45:00Z,26.0257,-81.7332,1.43,31.8,1111122 
NERRS,ioos:station:NOAA.NERRS:rkblhwq:1,2014-11-10T20:45:00Z,26.0257,-81.7332,1.54,32.1,1111122 
NERRS,ioos:station:NOAA.NERRS:rkblhwq:1,2014-11-10T21:45:00Z,26.0257,-81.7332,1.59,32.1,1111122 
NERRS,ioos:station:NOAA.NERRS:rkblhwq:1,2014-11-10T22:45:00Z,26.0257,-81.7332,1.53,31.9,1111122 
NERRS,ioos:station:NOAA.NERRS:rkblhwq:1,2014-11-10T23:45:00Z,26.0257,-81.7332,1.44,31.9,1111122 
NERRS,ioos:station:NOAA.NERRS:rkblhwq:1,2014-11-11T00:45:00Z,26.0257,-81.7332,1.34,31.8,1111122 
NERRS,ioos:station:NOAA.NERRS:rkblhwq:1,2014-11-11T01:45:00Z,26.0257,-81.7332,1.25,31.5,1111122 
NERRS,ioos:station:NOAA.NERRS:rkblhwq:1,2014-11-11T02:45:00Z,26.0257,-81.7332,1.21,31.5,1111122 
NERRS,ioos:station:NOAA.NERRS:rkblhwq:1,2014-11-11T03:45:00Z,26.0257,-81.7332,1.25,31.5,1111122 
NERRS,ioos:station:NOAA.NERRS:rkblhwq:1,2014-11-11T04:45:00Z,26.0257,-81.7332,1.35,31.7,1111122 
NERRS,ioos:station:NOAA.NERRS:rkblhwq:1,2014-11-11T05:45:00Z,26.0257,-81.7332,1.46,31.9,1111122 
NERRS,ioos:station:NOAA.NERRS:rkblhwq:1,2014-11-11T06:45:00Z,26.0257,-81.7332,1.57,32.0,1111122 
NERRS,ioos:station:NOAA.NERRS:rkblhwq:1,2014-11-11T07:45:00Z,26.0257,-81.7332,1.64,32.2,1111122 
NERRS,ioos:station:NOAA.NERRS:rkblhwq:1,2014-11-11T08:45:00Z,26.0257,-81.7332,1.66,32.3,1111122 
NERRS,ioos:station:NOAA.NERRS:rkblhwq:1,2014-11-11T09:45:00Z,26.0257,-81.7332,1.59,31.8,1111122 
NERRS,ioos:station:NOAA.NERRS:rkblhwq:1,2014-11-11T10:45:00Z,26.0257,-81.7332,1.48,31.7,1111122 
NERRS,ioos:station:NOAA.NERRS:rkblhwq:1,2014-11-11T11:45:00Z,26.0257,-81.7332,1.35,31.7,1111122 
NERRS,ioos:station:NOAA.NERRS:rkblhwq:1,2014-11-11T12:45:00Z,26.0257,-81.7332,1.22,31.0,1111122 
NERRS,ioos:station:NOAA.NERRS:rkblhwq:1,2014-11-11T13:45:00Z,26.0257,-81.7332,1.09,31.0,1111122 
NERRS,ioos:station:NOAA.NERRS:rkblhwq:1,2014-11-11T14:45:00Z,26.0257,-81.7332,0.97,30.9,1111122 